Location: Kitchener
(43.4500°N, 80.5000°W)
Time: 01:56:38
(UTC-04:00)

Cosmos 1939 Rocket - Visible Passes

Search period start: 20 September 2014 00:00
Search period end: 30 September 2014 00:00
Orbit: 541 x 595 km, 97.6° (Epoch: 18 September)

Date Brightness Start Highest point End Pass type
(mag) Time Alt. Az. Time Alt. Az. Time Alt. Az.
20 Sep 4.9 20:48:07 14° NE 20:48:07 14° NE 20:49:36 10° NNE visible
20 Sep 5.0 22:24:12 24° NW 22:24:12 24° NW 22:26:00 10° NNW visible
21 Sep 4.9 20:49:26 14° NE 20:49:26 14° NE 20:50:48 10° NNE visible
21 Sep 5.2 22:25:31 22° NNW 22:25:31 22° NNW 22:27:07 10° NNW visible
22 Sep 4.9 20:50:45 14° NE 20:50:45 14° NE 20:51:59 10° NNE visible
22 Sep 5.3 22:26:50 20° NNW 22:26:50 20° NNW 22:28:15 10° NNW visible
23 Sep 5.0 20:52:03 14° NE 20:52:03 14° NE 20:53:10 10° NNE visible
23 Sep 5.4 22:28:08 19° NNW 22:28:08 19° NNW 22:29:22 10° NNW visible
24 Sep 5.0 20:53:21 14° NE 20:53:21 14° NE 20:54:21 10° NNE visible
24 Sep 5.6 22:29:27 17° NNW 22:29:27 17° NNW 22:30:29 10° NNW visible
25 Sep 5.0 20:54:39 13° NE 20:54:39 13° NE 20:55:31 10° NNE visible
25 Sep 5.7 22:30:44 16° NNW 22:30:44 16° NNW 22:31:35 10° NNW visible
26 Sep 5.1 20:55:57 13° NE 20:55:57 13° NE 20:56:41 10° NNE visible
26 Sep 5.8 22:32:02 14° NNW 22:32:02 14° NNW 22:32:42 10° NNW visible
27 Sep 5.1 20:57:14 12° NNE 20:57:14 12° NNE 20:57:51 10° NNE visible
27 Sep 5.9 22:33:19 13° NNW 22:33:19 13° NNW 22:33:48 10° NNW visible
28 Sep 5.2 20:58:31 12° NNE 20:58:31 12° NNE 20:59:00 10° NNE visible
28 Sep 6.0 22:34:36 12° NNW 22:34:36 12° NNW 22:34:54 10° NNW visible
29 Sep 5.3 20:59:48 12° NNE 20:59:48 12° NNE 21:00:09 10° NNE visible
29 Sep 6.1 22:35:53 11° NNW 22:35:53 11° NNW 22:35:59 10° NNW visible
